Location: Schommer Observatory
(40.5200°N, 74.4500°W)
Time: 12:19:15
(UTC-05:00)

Envisat - Pass Details

Date: 10 October 2017
Orbit: 764 x 766 km, 98.2° (Epoch: 10 December)

Event Time Altitude Azimuth Distance (km) Brightness Sun altitude
Exits shadow 19:27:26 16° 74° (ENE) 1,900 4.5 -12.7°
Maximum altitude 19:28:15 17° 63° (ENE) 1,870 4.5 -12.8°
Drops below altitude 10° 19:31:25 10° 24° (NNE) 2,312 5.3 -13.4°
Sets 19:34:29 0° 5° (N) 3,244 6.2 -14.0°
